Location: Jastrz?bniki
(50.3667°N, 20.3833°E)
Time: 10:41:48
(UTC+00:00)

Cosmos 1633 Rocket - Pass Details

Date: 05 August 2024
Orbit: 604 x 618 km, 82.5° (Epoch: 10 September)

Event Time Altitude Azimuth Distance (km) Brightness Sun altitude
Exits shadow 00:46:19 24° 163° (SSE) 1,254 4.2 -17.6°
Maximum altitude 00:48:41 55° 95° (E) 734 3.5 -17.4°
Drops below altitude 10° 00:52:55 10° 18° (NNE) 1,964 6.8 -17.1°
Sets 00:55:11 0° 14° (NNE) 2,872 7.9 -16.9°
